Tracking 28052 objects as of 22-Sep-2023
HD Live streaming from Space Station
objects crossing your sky now

COSMOS 1349

Track COSMOS 1349 now!
10-day predictions
COSMOS 1349 is classified as:


NORAD ID: 13127
Int'l Code: 1982-030A
Perigee: 971.0 km
Apogee: 1,014.6 km
Inclination: 82.9 °
Period: 104.8 minutes
Semi major axis: 7363 km
RCS: 2.1672 m2 (large)
Launch date: April 8, 1982
Source: Commonwealth of Independent States (former USSR) (CIS)
Launch site: PLESETSK MISSILE AND SPACE COMPLEX (PKMTR)
Your satellite tracking list
Your tracking list is empty




NASA's NSSDC Master Catalog

Two Line Element Set (TLE):
1 13127U 82030A   23264.34491951  .00000095  00000-0  84932-4 0  9994
2 13127  82.9339 182.9625 0029669 302.2799 178.7949 13.73883955 78010
Source of the keplerian elements: AFSPC